Weather Roundup
Issued by NWS

Home | Current Version | Previous Version | Graphics & Text | Print | Product List | Glossary Off
Versions: 1 2 3 4 5 6 7 8 9 10 11 12 13 14 15 16 17 18 19 20 21 22 23 24 25 26 27 28 29 30 31 32 33 34 35 36 37 38 39 40 41 42 43 44 45 46 47 48 49 50

000
NZUS93 KARX 210010
HRRWXR

CURRENT HOURLY OBSERVATIONS ACROSS
MUCH OF THE UPPER MISSISSIPPI VALLEY
NATIONAL WEATHER SERVICE LA CROSSE WI
700 PM CDT SUN AUG 20 2017


...SOUTHEAST MINNESOTA...


CITY           SKY/WX    TMP DP  RH WIND       PRES   REMARKS
ROCHESTER      MOSUNNY   80  72  76 CALM      29.99R
ROCHESTER/MAYO FAIR      81  66  59 S5        29.98R
WINONA         MOSUNNY   81  66  61 CALM      29.96R
AUSTIN         MOSUNNY   81  70  69 CALM      29.98R
ALBERT LEA     SUNNY     82  70  65 CALM      29.98R
DODGE CENTER   SUNNY     77  68  73 S5        29.99R
PRESTON        SUNNY     78  66  66 S6        30.00R
OWATONNA       MOSUNNY   79  72  78 CALM      29.97R
FARIBAULT      MOSUNNY   79  72  78 CALM      29.97R
$$

...ELSEWHERE IN MINNESOTA...


CITY           SKY/WX    TMP DP  RH WIND       PRES   REMARKS
MINNEAPOLIS    CLOUDY    81  66  60 NW8       29.95R
INTNL FALLS    SUNNY     71  50  47 W6        29.94R
DULUTH         SUNNY     71  59  65 W7        29.96R
RED WING       CLOUDY    82  68  61 CALM      29.93S
REDWOOD FALLS  MOSUNNY   73  66  78 NW9       29.99S
MANKATO        CLOUDY    79  71  76 NW6       29.97R
WORTHINGTON    MOSUNNY   76  69  79 N10       30.01R
FAIRMONT       SUNNY     81  72  74 CALM      29.98R
$$

...SOUTHWEST WISCONSIN...


CITY           SKY/WX    TMP DP  RH WIND       PRES   REMARKS
LA CROSSE      CLEAR     86  66  51 SW6       29.95S
PRAIRIE DU CHI CLEAR     79  64  61 SE5       29.99S
BOSCOBEL       CLEAR     82  65  56 S3        30.00R
LONE ROCK      CLEAR     79  70  74 S6        29.99R
PLATTEVILLE    CLEAR     76  71  84 S3        30.02S
FORT MC COY    CLEAR     79  68  68 SE3       29.98S
CAMP DOUGLAS   CLEAR     80  69  69 S3        29.99R
MAUSTON-NEW LI CLEAR     79  71  74 S3        29.98S
VIROQUA        FAIR      77  65  64 CALM      30.01S
WIS DELLS      CLEAR     78  65  63 SW3       30.00S
$$

...ELSEWHERE IN WISCONSIN...


CITY           SKY/WX    TMP DP  RH WIND       PRES   REMARKS
MILWAUKEE      CLOUDY    79  66  64 S5        30.01R
MADISON        MOCLDY    77  66  68 S6        30.01R
GREEN BAY      CLEAR     77  71  82 S6        29.97R
EAU CLAIRE     CLOUDY    80  68  66 W6        29.94R
BLACK RVR FLS  FAIR      80  66  62 CALM      29.96S
MEDFORD        MOCLDY    76  66  71 SW6       29.98R
WAUSAU         CLEAR     78  65  63 SW8       29.96R
WIS RAPIDS     MOCLDY    78  68  71 S3        29.99S
MARSHFIELD     PTCLDY    78  66  66 SW6       29.97S
RICE LAKE      CLOUDY    77  68  75 NW3       29.97R
$$

...NORTHEAST IOWA...


CITY           SKY/WX    TMP DP  RH WIND       PRES   REMARKS
WATERLOO       SUNNY     79  65  62 S7        29.97R
DUBUQUE        CLOUDY    75  67  76 S3        30.02S
DECORAH        MOSUNNY   77  68  73 S7        29.99R
MASON CITY     SUNNY     82  67  60 SW5       29.99R
CHARLES CITY   SUNNY     81  70  69 CALM      29.98S
OELWEIN        SUNNY     77  70  78 S7        30.00S
$$

...ELSEWHERE IN IOWA...


CITY           SKY/WX    TMP DP  RH WIND       PRES   REMARKS
DES MOINES     MOSUNNY   80  65  59 CALM      29.96S
IOWA CITY      PTCLDY    82  70  66 E6        29.98S
FORT DODGE     SUNNY     82  70  65 E5        29.97S
MARSHALLTOWN   SUNNY     78  68  71 SE6       29.97S
CEDAR RAPIDS   PTCLDY    78  69  73 SE5       29.98S
$$

...NORTHERN ILLINOIS...


CITY           SKY/WX    TMP DP  RH WIND       PRES   REMARKS
CHICAGO-OHARE  LGT RAIN  82  68  62 S8        30.01R
CHICAGO-MIDWAY LGT RAIN  84  70  62 S7        30.01R
MOLINE         CLOUDY    80  69  69 E7        29.97F
ROCKFORD       CLOUDY    76  69  79 S8        30.03R
PEORIA         PTCLDY    85  74  69 SW6       29.99S HX  92
$$

NOTE: "FAIR" INDICATES FEW OR NO CLOUDS BELOW 12,000 FEET WITH NO
SIGNIFICANT WEATHER AND/OR OBSTRUCTIONS TO VISIBILITY. WIND
SPEEDS ARE IN MILES-PER-HOUR.




USA.gov is the U.S. government's official web portal to all federal, state and local government web resources and services.